Content
SEND FEEDBACK

Daily
Averages
Monthly
Summary
Philippines

BOOT, PHILIPPINES


Home > Asia > Philippines
Elevation: 36 feet     Latitude: 14 04N     Longitude: 121 03E

WEATHER
 
SELECT A DAY
Number of Records: 178,854;   Date Range: 7/1/96 - 12/17/14
 
SHARE

PRINT THIS DATA

[ ← Previous Day ]
WEATHER ALMANAC - FEBRUARY 8, 2013
[ Next Day → ]
[ °C ]   °F
Weather ElementAverageHighLow
Temperature82.4 °F89.6 °F (3:00 pm)75.2 °F (4:00 am)
Dewpoint71 °F75.2 °F (10:00 am)68 °F (8:00 pm)
Humidity67.8 %89 % (2:00 am)50 % (2:00 pm)
Barometer30.77 in (7:00 pm)29.83 in (3:00 am)
Wind Speed5 mph11.2 mph (5:00 pm)
Weather ElementAverage
Visibility6.1 mi
Wind DirectionSE (133.3 °)

Weather ElementTotal
Precipitation---
Cooling Degree Days17.4 (Base 65)
Growing Degree Days32.4 (Base 50)
Averaged from 31 records on February 8, 2013
WEATHER CONDITIONS BREAKOUT
WIND DIRECTION BREAKOUT
WEATHER BY HOUR - FEBRUARY 8, 2013
[ °C ]   °F
Local TimeTemperatureDewpointHumidityBarometerVisibilityWind DirectionWind SpeedGust SpeedPrecipitationEventsConditions
1:00 AM78.8 °F69.8 °F74 %29.86 in6.2 miSE (130°)4.6 mphScattered Clouds
2:00 AM78.0 °F75.0 °F89 %29.86 in6.0 miSSE (150°)2.2 mphHaze
2:00 AM78.8 °F69.8 °F74 %29.86 in6.2 miVariable1.2 mphPartly Cloudy
3:00 AM77.0 °F69.8 °F78 %29.83 in6.2 miCalmPartly Cloudy
4:00 AM75.2 °F69.8 °F83 %29.83 in6.2 miCalmPartly Cloudy
5:00 AM77.0 °F71.0 °F77 %29.86 in6.0 miNW (310°)2.2 mphHaze
5:00 AM75.2 °F71.6 °F89 %29.86 in6.2 miVariable2.3 mphPartly Cloudy
6:00 AM77.0 °F71.6 °F83 %29.86 in6.2 miVariable2.3 mphPartly Cloudy
7:00 AM77.0 °F71.6 °F83 %29.89 in6.2 miVariable2.3 mphPartly Cloudy
8:00 AM80.0 °F71.0 °F68 %29.93 in6.0 miCalmHaze
8:00 AM80.6 °F71.6 °F74 %29.92 in5.6 miCalmPartly Cloudy
9:00 AM82.4 °F71.6 °F70 %29.92 in6.2 miVariable1.2 mphPartly Cloudy
10:00 AM84.2 °F75.2 °F74 %29.95 in6.2 miWest (270°)8.1 mphPartly Cloudy
11:00 AM84.0 °F71.0 °F57 %29.93 in6.0 miWest (270°)4.5 mphPartly Cloudy
11:00 AM84.2 °F71.6 °F66 %6.2 miWest (270°)5.8 mphPartly Cloudy
12:00 PM87.8 °F71.6 °F58 %29.89 in6.2 miSouth (170°)4.6 mphPartly Cloudy
1:00 PM87.8 °F71.6 °F58 %29.86 in6.2 miWest (280°)8.1 mphPartly Cloudy
2:00 PM88.0 °F72.0 °F50 %29.86 in6.0 miWest (280°)6.7 mphScattered Clouds
2:00 PM87.8 °F71.6 °F58 %29.86 in6.2 miWest (280°)6.9 mphPartly Cloudy
3:00 PM89.6 °F71.6 °F55 %29.83 in6.2 miSSE (150°)9.2 mphScattered Clouds
4:00 PM89.6 °F71.6 °F55 %29.83 in6.2 miSE (140°)9.2 mphScattered Clouds
5:00 PM87.0 °F6.0 miSE (140°)11.2 mph
5:00 PM89.6 °F71.6 °F55 %29.83 in6.2 miSE (140°)9.2 mphScattered Clouds
6:00 PM86.0 °F69.8 °F58 %29.86 in6.2 miSE (140°)9.2 mphMostly Cloudy
7:00 PM84.2 °F69.8 °F62 %29.86 in6.2 miESE (120°)9.2 mphScattered Clouds
8:00 PM83.0 °F69.0 °F54 %29.90 in6.0 miESE (120°)8.9 mphHaze
8:00 PM82.4 °F68.0 °F62 %29.89 in6.2 miESE (120°)9.2 mphScattered Clouds
9:00 PM82.4 °F69.8 °F66 %29.92 in6.2 miESE (120°)6.9 mphScattered Clouds
10:00 PM80.6 °F69.8 °F70 %29.92 in6.2 miESE (120°)4.6 mphScattered Clouds
11:00 PM80.0 °F70.0 °F63 %29.93 in6.0 miSE (140°)2.2 mphHaze
11:00 PM80.6 °F69.8 °F70 %29.92 in6.2 miSE (140°)3.5 mphPartly Cloudy
Hourly data recorded from RPLL, located miles away from Boot, Philippines







STORIES FROM OUR PARTNERS